Terug naar catalogus

SL-8 R/B

ActiefLEO
NORAD 6826·ROCKET BODY·🇷🇺 Russia

Gelanceerd Sep 8, 1973 vanaf Plesetsk Cosmodrome

Loading…

Volgende Passages (komende 24 uur)

TLE

VersSource: Space-Track

Epoch: Sep 14, 2026, 15:16 UTC

1 06826U 73064B   26257.63643336 -.00000020  00000-0 -14269-4 0  9998
2 06826  74.0213 319.3655 0029698 294.3060 233.0142 12.69799868457704

Volg SL-8 R/B in realtime met AllMySat

Download on the App Store